This demonstration page uses our WeatherBlox Daily Observations layout. Learn more.

Left ArrowRight Arrow

34.74481, -87.66753

Hourly Observations for July 4, 2022

Temp ( °F °C ) Dew Point ( °F °C ) Humidity (%) Winds ( mph kmh ) Pressure ( in mb ) Visibility ( mi km ) Precip ( " mm )
12:53 am 00:53 Clear 76 24.4 71 21.7 85 85 Calm 30.06 1018 10 16 0.00 0.00
1:53 am 01:53 Clear 76 24.4 71 21.7 85 85 Calm 30.04 1017 10 16 0.00 0.00
2:53 am 02:53 Clear 75 23.9 71 21.7 88 88 Calm 30.05 1018 10 16 0.00 0.00
3:53 am 03:53 Clear 76 24.4 71 21.7 85 85 SW 3 6 30.05 1018 10 16 0.00 0.00
4:53 am 04:53 Clear 74 23.3 71 21.7 91 91 Calm 30.06 1018 10 16 0.00 0.00
5:53 am 05:53 Sunny 74 23.3 71 21.7 91 91 SSE 3 6 30.08 1019 10 16 0.00 0.00
6:53 am 06:53 Sunny 77 25 73 22.8 88 88 Calm 30.10 1019 10 16 0.00 0.00
7:53 am 07:53 Sunny 81 27.2 74 23.3 79 79 W 6 9 30.10 1019 10 16 0.00 0.00
8:53 am 08:53 Sunny 86 30 74 23.3 67 67 W 7 11 30.11 1020 10 16 0.00 0.00
9:53 am 09:53 Mostly Sunny 89 31.7 73 22.8 59 59 VRB 5 7 30.11 1020 10 16 0.00 0.00
10:53 am 10:53 Partly Cloudy 89 31.7 72 22.2 57 57 WNW 3 6 30.10 1019 10 16 0.00 0.00
11:53 am 11:53 Partly Cloudy 91 32.8 72 22.2 54 54 Calm 30.09 1019 10 16 0.00 0.00
12:53 pm 12:53 Mostly Cloudy 91 32.8 71 21.7 52 52 SE 5 7 30.06 1018 10 16 0.00 0.00
1:53 pm 13:53 Partly Cloudy 93 33.9 72 22.2 50 50 SSE 8 13 30.04 1017 10 16 0.00 0.00
2:53 pm 14:53 Mostly Cloudy 93 33.9 71 21.7 49 49 SSW 7 11 30.01 1016 10 16 0.00 0.00
3:53 pm 15:53 Partly Cloudy 97 36.1 71 21.7 43 43 Calm 30.00 1016 10 16 0.00 0.00
4:53 pm 16:53 Sunny 95 35 72 22.2 47 47 VRB 6 9 29.98 1015 10 16 0.00 0.00
5:53 pm 17:53 Partly Cloudy 95 35 71 21.7 46 46 SE 6 9 29.98 1015 10 16 0.00 0.00
6:53 pm 18:53 Mostly Sunny 93 33.9 71 21.7 49 49 SSW 3 6 29.99 1016 10 16 0.00 0.00
7:15 pm 19:15 Partly Cloudy with Thunderstorms 91 32.8 72 22.2 54 54 WSW 5 7 29.98 1015 10 16 0.00 0.00
7:53 pm 19:53 Mostly Sunny 85 29.4 72 22.2 65 65 W 6 9 30.02 1017 10 16 0.00 0.00
8:53 pm 20:53 Clear 84 28.9 73 22.8 70 70 S 3 6 30.03 1017 10 16 0.00 0.00
9:53 pm 21:53 Clear 82 27.8 72 22.2 72 72 SSW 5 7 30.04 1017 10 16 0.00 0.00
10:53 pm 22:53 Clear 79 26.1 73 22.8 82 82 SSE 3 6 30.04 1017 10 16 0.00 0.00
11:53 pm 23:53 Clear 79 26.1 72 22.2 79 79 Calm 30.04 1017 10 16 0.00 0.00

Powered by AerisWeather